Погода в Останином

Россия / Республика Крым     45°19′40″N   35°54′45″E
темп.,
°C
ветер,
м/с
пор.,
м/с
влажн.,
%
обл.,
%
осадки,
мм/ч
давл.,
гПа
погр.,
м
13 апреля, вт
вт1300:00+9ююв4684100 0.0 1022427
03:00+7ююв2597100 0.0 1021176
06:00+7ююв2397100 0.1 102270
09:00+10ююз3379100 0.2 1022554
12:00+11ю3374100 0.0 1022748
15:00+12ююз446799 0.1 1021970
18:00+10ююз457612 0.0 1021559
21:00+7ю349568 0.0 102196
14 апреля, ср
ср1400:00+6ююз34945 0.0 102078
03:00+6ю22922 0.0 102031
06:00+5ююв34912 0.0 101956
09:00+11ююв46670 0.0 1019639
12:00+13ююв66580 0.0 1018866
15:00+13ю676013 0.0 1017788
18:00+10ююв6975100 0.0 1016564
21:00+9ююв5991100 0.0 1016352
15 апреля, чт
чт1500:00+9ююв598993 0.0 1015353
03:00+7ююв410945 0.0 1015255
06:00+7ю499494 0.0 1014209
09:00+10ю4788100 0.4 1015292
12:00+11ююз71086100 1.0 1015549
15:00+13юз786426 1.0 1015696
18:00+11юз437333 0.0 1016362
21:00
16 апреля, пт
пт1600:00+6ю119194 0.0 101612
03:00+6ссз22905 0.0 101628
06:00+5сз129273 0.0 101715
09:00+10ююв226772 0.0 1017494
12:00+12ююз67584 0.0 10171361
15:00+12юз77605 0.0 1017959
18:00+10юз687261 0.0 1018487
21:00+7ююз59886 0.0 1018261
17 апреля, сб
сб1700:00+7зюз23844 0.0 101970
03:00+5ююз22911 0.0 102012
06:00+5юв22913 0.0 102014
09:00+10ююв326416 0.0 1020537
12:00+13ю3252100 0.0 10201444
15:00+12ююз3255100 0.0 1020868
18:00+11ююв22595 0.0 1020639
21:00+7ююв22741 0.0 102028